Puyallup, WA
on Saturday, January 5, 2013

Saturday
Previous Day Next Day
Daily Summary
 ActualAverage (KSEA)Record (KSEA)
Temperature
Mean Temperature °F 41°F  
Max Temperature 44°F 46°F 55°F (2006)
Min Temperature 37°F 36°F 15°F (1982)
Degree Days
Heating Degree Days 24 24  
Month to date heating degree days 120  
Since 1 July heating degree days 2058  
Cooling Degree Days 0 0  
Month to date cooling degree days 0  
Year to date cooling degree days 0  
Moisture
Dew Point 39°F   
Average Humidity 99    
Maximum Humidity 100    
Minimum Humidity 81    
Precipitation
Precipitation 0.07 in 0.18 in 1.33 in (2006)
Month to date precipitation 0.92  
Year to date precipitation 0.92  
Snow
Snow 0.00 in in 2.00 in (1959)
Month to date snowfall  
Since 1 July snowfall  
Snow Depth in   
Wind
Wind Speed 0 mph   
Max Wind Speed 0 mph   
Max Gust Speed mph   
Visibility 5 miles   
Events Fog , Rain   

Key: T is trace of precipitation, MM is missing value
Source: NWS Daily Summary
Time(PST)TemperatureDew PointHumidity Pressure Visibility Wind DirectionWind SpeedGust SpeedPrecipitationEvents Conditions
12:15 AM 37.4°F 37.4°F 100% 30.16 in 1.8 miles Calm Calm - N/A   Clear
12:35 AM 37.4°F 37.4°F 100% 30.15 in 1.8 miles Calm Calm - N/A   Clear
12:55 AM 37.4°F 37.4°F 100% 30.15 in 1.2 miles Calm Calm - N/A   Scattered Clouds
1:15 AM 39.2°F 39.2°F 100% 30.16 in 1.0 miles Calm Calm - N/A   Overcast
1:35 AM 39.2°F 39.2°F 100% 30.16 in 0.2 miles Calm Calm - N/A Fog Fog
1:55 AM 39.2°F 39.2°F 100% 30.15 in 0.5 miles Calm Calm - N/A Fog Fog
2:15 AM 39.2°F 39.2°F 100% 30.16 in 0.8 miles Calm Calm - N/A   Overcast
2:35 AM 39.2°F 39.2°F 100% 30.17 in 0.5 miles Calm Calm - N/A Fog Fog
2:55 AM 39.2°F 39.2°F 100% 30.17 in 0.5 miles Calm Calm - N/A Fog Fog
3:15 AM 39.2°F 39.2°F 100% 30.17 in 0.5 miles Calm Calm - N/A Fog Fog
3:35 AM 37.4°F 37.4°F 100% 30.17 in 0.2 miles Calm Calm - N/A Fog Fog
3:55 AM 37.4°F 37.4°F 100% 30.16 in 0.5 miles Calm Calm - N/A Fog Fog
4:35 AM 37.4°F 37.4°F 100% 30.16 in 1.0 miles Calm Calm - N/A   Overcast
4:55 AM 37.4°F 37.4°F 100% 30.16 in 0.8 miles Calm Calm - N/A   Mostly Cloudy
5:15 AM 37.4°F 37.4°F 100% 30.16 in 0.5 miles Calm Calm - N/A Fog Fog
5:35 AM 37.4°F 37.4°F 100% 30.16 in 1.8 miles Calm Calm - N/A   Scattered Clouds
5:55 AM 37.4°F 37.4°F 100% 30.16 in 0.5 miles Calm Calm - N/A Fog Fog
6:15 AM 37.4°F 37.4°F 100% 30.16 in 0.5 miles Calm Calm - N/A Fog Fog
6:35 AM 37.4°F 37.4°F 100% 30.17 in 2.5 miles Calm Calm - N/A   Scattered Clouds
6:55 AM 37.4°F 37.4°F 100% 30.17 in 3.0 miles Calm Calm - N/A   Overcast
7:15 AM 37.4°F 37.4°F 100% 30.17 in 3.0 miles Calm Calm - N/A   Overcast
7:35 AM 37.4°F 37.4°F 100% 30.17 in 4.0 miles Calm Calm - N/A   Overcast
7:55 AM 39.2°F 39.2°F 100% 30.16 in 5.0 miles Calm Calm - N/A   Scattered Clouds
8:15 AM 39.2°F 39.2°F 100% 30.17 in 10.0 miles Calm Calm - N/A   Scattered Clouds
8:55 AM 39.2°F 39.2°F 100% 30.18 in 10.0 miles Calm Calm - N/A   Partly Cloudy
9:15 AM 41.0°F 37.4°F 87% 30.17 in 10.0 miles Calm Calm - N/A   Clear
9:35 AM 41.0°F 35.6°F 81% 30.18 in 10.0 miles Calm Calm - N/A   Clear
9:55 AM 41.0°F 37.4°F 87% 30.19 in 10.0 miles Calm Calm - N/A   Clear
10:15 AM 41.0°F 39.2°F 93% 30.20 in 10.0 miles Calm Calm - N/A Rain Light Rain
10:35 AM 41.0°F 39.2°F 93% 30.20 in 6.0 miles Calm Calm - N/A Rain Light Rain
10:55 AM 41.0°F 39.2°F 93% 30.21 in 5.0 miles Calm Calm - N/A Rain Light Rain
11:15 AM 41.0°F 41.0°F 100% 30.20 in 4.0 miles Calm Calm - N/A Rain Light Rain
11:35 AM 39.2°F 39.2°F 100% 30.19 in 4.0 miles Calm Calm - 0.02 in Rain Light Rain
11:55 AM 41.0°F 41.0°F 100% 30.18 in 10.0 miles Calm Calm - 0.02 in   Clear
12:15 PM 41.0°F 41.0°F 100% 30.17 in 10.0 miles Calm Calm - N/A   Clear
12:35 PM 41.0°F 41.0°F 100% 30.16 in 10.0 miles Calm Calm - N/A   Clear
12:55 PM 42.8°F 42.8°F 100% 30.15 in 10.0 miles Calm Calm - N/A   Clear
1:15 PM 42.8°F 42.8°F 100% 30.14 in 10.0 miles Calm Calm - N/A   Clear
1:35 PM 42.8°F 42.8°F 100% 30.13 in 10.0 miles Calm Calm - N/A   Clear
1:55 PM 42.8°F 42.8°F 100% 30.14 in 10.0 miles Calm Calm - N/A   Clear
2:15 PM 42.8°F 42.8°F 100% 30.12 in 10.0 miles Calm Calm - N/A   Clear
2:35 PM 44.6°F 42.8°F 93% 30.12 in 10.0 miles Calm Calm - N/A   Clear
2:55 PM 44.6°F 42.8°F 93% 30.13 in 10.0 miles Calm Calm - N/A   Clear
3:15 PM 42.8°F 42.8°F 100% 30.13 in 10.0 miles Calm Calm - N/A   Clear
3:35 PM 42.8°F 42.8°F 100% 30.12 in 10.0 miles Calm Calm - N/A   Clear
3:55 PM 42.8°F 42.8°F 100% 30.12 in 10.0 miles Calm Calm - N/A   Clear
4:15 PM 41.0°F 41.0°F 100% 30.13 in 10.0 miles Calm Calm - N/A   Clear
4:35 PM 41.0°F 41.0°F 100% 30.12 in 8.0 miles Calm Calm - N/A   Clear
4:55 PM 41.0°F 41.0°F 100% 30.12 in 8.0 miles Calm Calm - N/A   Clear
5:15 PM 39.2°F 39.2°F 100% 30.12 in 0.5 miles Calm Calm - N/A Fog Fog
5:55 PM 37.4°F 37.4°F 100% 30.12 in 2.0 miles Calm Calm - N/A   Clear
6:15 PM 39.2°F 39.2°F 100% 30.12 in 2.5 miles Calm Calm - N/A   Scattered Clouds
6:35 PM 39.2°F 39.2°F 100% 30.13 in 0.8 miles Calm Calm - N/A   Mist
6:55 PM 39.2°F 39.2°F 100% 30.12 in 2.0 miles Calm Calm - N/A   Clear
7:15 PM 39.2°F 39.2°F 100% 30.12 in 2.5 miles Calm Calm - N/A   Clear
7:35 PM 39.2°F 39.2°F 100% 30.11 in 5.0 miles Calm Calm - N/A   Clear
7:55 PM 39.2°F 39.2°F 100% 30.11 in 4.0 miles Calm Calm - N/A   Clear
8:35 PM 39.2°F 39.2°F 100% 30.12 in 3.0 miles Calm Calm - N/A   Clear
8:55 PM 39.2°F 39.2°F 100% 30.13 in 4.0 miles Calm Calm - N/A   Clear
9:15 PM 39.2°F 39.2°F 100% 30.13 in 5.0 miles Calm Calm - N/A Rain Light Rain
9:35 PM 39.2°F 39.2°F 100% 30.13 in 5.0 miles Calm Calm - N/A Rain Light Rain
9:55 PM 39.2°F 39.2°F 100% 30.13 in 4.0 miles Calm Calm - N/A Rain Light Rain
10:15 PM 39.2°F 39.2°F 100% 30.14 in 2.0 miles Calm Calm - 0.01 in Rain Light Rain
10:35 PM 39.2°F 39.2°F 100% 30.15 in 2.5 miles Calm Calm - 0.02 in Rain Light Rain
10:55 PM 39.2°F 39.2°F 100% 30.14 in 2.5 miles Calm Calm - 0.04 in Rain Light Rain
11:15 PM 39.2°F 39.2°F 100% 30.15 in 4.0 miles Calm Calm - 0.01 in Rain Light Rain
11:35 PM 39.2°F 39.2°F 100% 30.16 in 2.0 miles Calm Calm - 0.01 in Rain Light Rain
11:55 PM 39.2°F 39.2°F 100% 30.16 in 3.0 miles Calm Calm - 0.01 in   Overcast
Moon Phase
Jan. 05 Jan. 11 Jan. 18 Jan. 26 Feb. 03
Sunrise:07:54 AM (PST) Moon Rise:12:54 AM (PST)1/5
Sunset:04:34 PM (PST) Moon Set:11:39 AM (PST)1/5

Copyright © 2014 The Weather Underground, Inc.